Weather History for KPRN - January, 2012

Change the Weather History Date:

Wednesday, January 25, 2012

  Actual Average Record
Temperature  
Mean Temperature 66 °F -  
Max Temperature 78 °F 61 °F 80 °F (1943)
Min Temperature 55 °F 37 °F 15 °F (1963)
Cooling Degree Days 2    
Growing Degree Days 16 (Base 50)    
Moisture  
Dew Point 51 °F    
Average Humidity 64    
Maximum Humidity 84    
Minimum Humidity 52    
Precipitation  
Precipitation 0.00 in - - ()
Sea Level Pressure  
Sea Level Pressure 30.09 in    
Wind  
Wind Speed 7 mph (SE)    
Max Wind Speed 15 mph    
Max Gust Speed 22 mph    
Visibility 10 miles    
Events Rain , Hail    
Averages and records for this station are not official NWS values.
T = Trace of Precipitation, MM = Missing Value Source: NWS Daily Summary

Daily Weather History Graph

Daily Weather History Graph

Search for Another Location

Airport or City:

Trip Planner

Search our weather history database for the weather conditions in past years. The results will help you decide how hot, cold, wet, or windy it might be!

Date:

Astronomy

Jan. 25, 2012 Rise Set
Actual Time 6:43 AM CST 5:13 PM CST
Civil Twilight 6:17 AM CST 5:39 PM CST
Nautical Twilight 5:48 AM CST 6:09 PM CST
Astronomical Twilight 5:19 AM CST 6:38 PM CST
Moon 7:55 AM CST (1/25) 7:52 PM CST (1/25)
Length of Visible Light 11h 21m
Length of Day
10h 29m
Waxing Crescent, 7% of the Moon is Illuminated
Jan 25
Waxing Crescent
Jan 30
First Quarter
Feb 7
Full
Feb 14
Last Quarter
Feb 21
New

Hourly Weather History & Observations

Time (CST) Temp. Dew Point Humidity Pressure Visibility Wind Dir Wind Speed Gust Speed Precip Events Conditions
12:56 AM 57.0 °F 41.0 °F 55% 30.14 in 10.0 mi NE 4.6 mph - N/A   Scattered Clouds
1:56 AM 57.0 °F 41.0 °F 55% 30.14 in 10.0 mi East 3.5 mph - N/A   Clear
2:56 AM 57.0 °F 41.0 °F 55% 30.13 in 10.0 mi NE 4.6 mph - N/A   Clear
3:56 AM 55.9 °F 39.9 °F 55% 30.13 in 10.0 mi ENE 4.6 mph - N/A   Clear
4:56 AM 55.0 °F 39.0 °F 55% 30.14 in 10.0 mi East 5.8 mph - N/A   Clear
5:23 AM 55.9 °F 39.9 °F 55% 30.15 in 10.0 mi East 4.6 mph - N/A   Mostly Cloudy
5:32 AM 55.9 °F 39.9 °F 55% 30.15 in 10.0 mi East 6.9 mph - N/A   Overcast
5:40 AM 55.9 °F 39.9 °F 55% 30.15 in 10.0 mi East 5.8 mph - N/A   Overcast
5:49 AM 55.0 °F 39.9 °F 57% 30.15 in 10.0 mi East 5.8 mph - N/A   Mostly Cloudy
5:56 AM 55.0 °F 39.9 °F 57% 30.15 in 10.0 mi East 5.8 mph - N/A   Scattered Clouds
6:45 AM 55.0 °F 42.1 °F 62% 30.15 in 10.0 mi East 6.9 mph - N/A   Mostly Cloudy
6:56 AM 55.9 °F 42.1 °F 60% 30.15 in 10.0 mi East 5.8 mph - N/A   Overcast
7:10 AM 55.9 °F 43.0 °F 62% 30.15 in 10.0 mi East 8.1 mph - N/A   Overcast
7:56 AM 57.9 °F 44.1 °F 60% 30.15 in 10.0 mi ESE 8.1 mph - N/A   Overcast
8:56 AM 60.1 °F 50.0 °F 69% 30.16 in 10.0 mi East 6.9 mph - N/A   Overcast
9:43 AM 63.0 °F 55.0 °F 75% 30.16 in 10.0 mi ESE 11.5 mph 18.4 mph N/A   Partly Cloudy
9:56 AM 64.0 °F 55.0 °F 73% 30.15 in 10.0 mi ESE 8.1 mph - N/A   Clear
10:56 AM 70.0 °F 57.0 °F 63% 30.12 in 10.0 mi SE 6.9 mph - N/A   Clear
11:56 AM 73.9 °F 59.0 °F 59% 30.09 in 10.0 mi SSE 11.5 mph 17.3 mph N/A   Clear
12:56 PM 75.9 °F 59.0 °F 56% 30.06 in 10.0 mi South 13.8 mph 20.7 mph 0.00 in Rain Light Rain
1:56 PM 75.9 °F 60.1 °F 58% 30.04 in 10.0 mi SSE 15.0 mph 21.9 mph 0.00 in   Scattered Clouds
2:56 PM 78.1 °F 59.0 °F 52% 30.01 in 10.0 mi South 10.4 mph 20.7 mph 0.00 in   Partly Cloudy
3:45 PM - - N/A% - - North - - N/A Hail Hail
3:56 PM 75.9 °F 57.9 °F 54% 30.00 in 10.0 mi South 15.0 mph 19.6 mph 0.00 in   Partly Cloudy
4:56 PM 73.9 °F 55.9 °F 53% 30.01 in 10.0 mi SSE 10.4 mph - N/A   Clear
5:56 PM 71.1 °F 57.9 °F 63% 30.02 in 10.0 mi South 6.9 mph - 0.00 in   Clear
6:30 PM - - N/A% - - North - - N/A Hail Hail
6:56 PM 68.0 °F 59.0 °F 73% 30.03 in 10.0 mi South 4.6 mph - N/A   Clear
7:45 PM - - N/A% - - North - - N/A Hail Hail
7:56 PM 66.9 °F 60.1 °F 79% 30.04 in 10.0 mi SSE 4.6 mph - 0.00 in   Partly Cloudy
8:56 PM 66.0 °F 60.1 °F 81% 30.04 in 10.0 mi South 4.6 mph - N/A   Clear
9:29 PM 66.0 °F 60.1 °F 81% 30.05 in 10.0 mi South 5.8 mph - N/A   Mostly Cloudy
9:56 PM 66.9 °F 61.0 °F 81% 30.05 in 10.0 mi South 8.1 mph - 0.00 in Rain Light Rain
10:56 PM 66.9 °F 61.0 °F 81% 30.02 in 10.0 mi SE 8.1 mph - N/A   Mostly Cloudy
11:30 PM 66.0 °F 60.1 °F 81% 30.02 in 10.0 mi SE 8.1 mph - N/A   Scattered Clouds
11:56 PM 66.0 °F 61.0 °F 84% 30.00 in 10.0 mi SE 6.9 mph - N/A   Partly Cloudy